TimeCDT,TemperatureF,Dew PointF,Humidity,Sea Level PressureIn,VisibilityMPH,Wind Direction,Wind SpeedMPH,Gust SpeedMPH,PrecipitationIn,Events,Conditions,WindDirDegrees,DateUTC
12:15 AM,46.9,35.4,64,30.24,10.0,Calm,Calm,-,N/A,,Clear,0,2013-10-13 05:15:00
12:35 AM,46.2,37.0,70,30.25,10.0,West,3.5,-,N/A,,Clear,270,2013-10-13 05:35:00
12:55 AM,43.7,35.6,73,30.25,10.0,West,4.6,-,N/A,,Clear,270,2013-10-13 05:55:00
1:15 AM,46.9,34.9,63,30.25,10.0,WNW,4.6,-,N/A,,Clear,290,2013-10-13 06:15:00
1:35 AM,48.0,34.9,60,30.26,10.0,WNW,5.8,-,N/A,,Clear,290,2013-10-13 06:35:00
1:55 AM,48.9,34.3,57,30.26,10.0,NW,5.8,-,N/A,,Clear,310,2013-10-13 06:55:00
2:15 AM,50.2,33.4,53,30.27,10.0,WNW,6.9,-,N/A,,Clear,300,2013-10-13 07:15:00
2:35 AM,50.0,33.1,52,30.28,10.0,WNW,4.6,-,N/A,,Clear,300,2013-10-13 07:35:00
2:55 AM,49.1,33.1,54,30.28,10.0,WNW,4.6,-,N/A,,Clear,300,2013-10-13 07:55:00
3:15 AM,48.7,32.9,54,30.29,10.0,NW,3.5,-,N/A,,Clear,310,2013-10-13 08:15:00
3:35 AM,49.1,32.2,52,30.30,10.0,NW,6.9,-,N/A,,Clear,320,2013-10-13 08:35:00
3:55 AM,47.5,32.4,56,30.31,10.0,NW,3.5,-,N/A,,Clear,310,2013-10-13 08:55:00
4:15 AM,47.3,32.2,56,30.31,10.0,Calm,Calm,-,N/A,,Clear,0,2013-10-13 09:15:00
4:35 AM,41.4,32.7,71,30.32,10.0,Calm,Calm,-,N/A,,Clear,0,2013-10-13 09:35:00
4:55 AM,39.9,32.9,76,30.32,10.0,Calm,Calm,-,N/A,,Clear,0,2013-10-13 09:55:00
5:15 AM,40.3,33.8,78,30.33,10.0,Calm,Calm,-,N/A,,Clear,0,2013-10-13 10:15:00
5:35 AM,38.5,33.1,81,30.34,10.0,WNW,3.5,-,N/A,,Clear,290,2013-10-13 10:35:00
5:55 AM,40.8,36.5,85,30.34,10.0,Calm,Calm,-,N/A,,Clear,0,2013-10-13 10:55:00
6:15 AM,39.4,36.5,89,30.34,10.0,Calm,Calm,-,N/A,,Clear,0,2013-10-13 11:15:00
6:35 AM,40.3,34.3,79,30.35,10.0,Calm,Calm,-,N/A,,Clear,0,2013-10-13 11:35:00
6:55 AM,38.7,36.0,90,30.36,10.0,Calm,Calm,-,N/A,,Clear,0,2013-10-13 11:55:00
7:15 AM,41.2,32.9,72,30.37,10.0,Calm,Calm,-,N/A,,Clear,0,2013-10-13 12:15:00
7:35 AM,40.6,32.9,74,30.38,10.0,NW,3.5,-,N/A,,Clear,320,2013-10-13 12:35:00
7:55 AM,41.2,34.0,76,30.38,10.0,NNW,5.8,-,N/A,,Clear,330,2013-10-13 12:55:00
8:15 AM,43.3,34.9,72,30.39,10.0,NNW,6.9,-,N/A,,Clear,340,2013-10-13 13:15:00
8:35 AM,45.9,34.7,65,30.40,10.0,NNW,5.8,-,N/A,,Clear,340,2013-10-13 13:35:00
8:55 AM,48.6,34.5,58,30.41,10.0,Calm,Calm,-,N/A,,Clear,0,2013-10-13 13:55:00
9:15 AM,50.0,34.0,54,30.42,10.0,Calm,Calm,-,N/A,,Clear,0,2013-10-13 14:15:00
9:35 AM,52.5,34.5,50,30.43,10.0,Calm,Calm,-,N/A,,Clear,0,2013-10-13 14:35:00
9:55 AM,55.0,35.6,48,30.43,10.0,North,3.5,-,N/A,,Clear,350,2013-10-13 14:55:00
10:15 AM,57.9,34.0,41,30.43,10.0,Calm,Calm,-,N/A,,Clear,0,2013-10-13 15:15:00
10:55 AM,61.5,29.7,30,30.43,10.0,Calm,Calm,-,N/A,,Clear,0,2013-10-13 15:55:00
11:15 AM,62.8,27.9,27,30.43,10.0,NE,4.6,-,N/A,,Clear,40,2013-10-13 16:15:00
11:35 AM,63.3,25.9,24,30.43,10.0,NW,3.5,-,N/A,,Clear,310,2013-10-13 16:35:00
11:55 AM,64.4,25.2,23,30.43,10.0,NNW,8.1,-,N/A,,Clear,340,2013-10-13 16:55:00
12:15 PM,64.4,25.2,23,30.42,10.0,NNW,4.6,-,N/A,,Clear,340,2013-10-13 17:15:00
12:35 PM,64.9,25.7,23,30.41,10.0,NNW,5.8,-,N/A,,Clear,340,2013-10-13 17:35:00
12:55 PM,64.6,25.3,23,30.40,10.0,NNW,5.8,-,N/A,,Clear,340,2013-10-13 17:55:00
1:15 PM,65.1,25.0,22,30.40,10.0,Calm,Calm,-,N/A,,Clear,0,2013-10-13 18:15:00
1:35 PM,66.4,24.3,20,30.39,10.0,WNW,4.6,-,N/A,,Clear,300,2013-10-13 18:35:00
1:55 PM,66.6,24.1,20,30.38,10.0,North,6.9,-,N/A,,Clear,10,2013-10-13 18:55:00
2:15 PM,66.9,23.0,19,30.38,10.0,North,6.9,-,N/A,,Clear,360,2013-10-13 19:15:00
2:35 PM,67.1,21.7,18,30.38,10.0,NE,3.5,-,N/A,,Clear,40,2013-10-13 19:35:00
2:55 PM,66.9,21.4,18,30.37,10.0,Calm,Calm,-,N/A,,Clear,0,2013-10-13 19:55:00
3:15 PM,67.1,22.5,18,30.37,10.0,West,3.5,-,N/A,,Clear,270,2013-10-13 20:15:00
3:35 PM,66.9,21.2,18,30.37,10.0,Calm,Calm,-,N/A,,Clear,0,2013-10-13 20:35:00
3:55 PM,68.2,20.5,16,30.36,10.0,Calm,Calm,-,N/A,,Clear,0,2013-10-13 20:55:00
4:15 PM,67.3,21.4,17,30.36,10.0,Calm,Calm,-,N/A,,Clear,0,2013-10-13 21:15:00
4:35 PM,67.1,21.2,17,30.35,10.0,North,5.8,-,N/A,,Clear,350,2013-10-13 21:35:00
4:55 PM,66.4,20.8,18,30.35,10.0,Calm,Calm,-,N/A,,Clear,0,2013-10-13 21:55:00
5:15 PM,65.8,20.5,18,30.35,10.0,North,4.6,-,N/A,,Clear,360,2013-10-13 22:15:00
5:35 PM,65.3,20.7,18,30.35,10.0,North,5.8,-,N/A,,Clear,10,2013-10-13 22:35:00
5:55 PM,64.2,21.2,19,30.35,10.0,North,4.6,-,N/A,,Clear,10,2013-10-13 22:55:00
6:15 PM,61.2,23.4,24,30.36,4.0,NNE,4.6,-,N/A,,Haze,20,2013-10-13 23:15:00
6:35 PM,59.4,23.7,25,30.36,7.0,North,3.5,-,N/A,,Clear,10,2013-10-13 23:35:00
6:55 PM,56.3,25.3,30,30.36,7.0,North,4.6,-,N/A,,Clear,10,2013-10-13 23:55:00
7:15 PM,53.4,27.3,37,30.36,10.0,North,5.8,-,N/A,,Clear,10,2013-10-14 00:15:00
7:35 PM,52.7,27.9,38,30.36,1.2,NNE,8.1,-,N/A,,Haze,30,2013-10-14 00:35:00
7:55 PM,49.6,28.4,44,30.36,2.0,NE,6.9,-,N/A,,Haze,50,2013-10-14 00:55:00
8:15 PM,52.7,27.0,37,30.37,1.8,NE,5.8,-,N/A,,Haze,40,2013-10-14 01:15:00
8:35 PM,50.4,27.5,41,30.38,1.5,NE,6.9,-,N/A,,Haze,40,2013-10-14 01:35:00
8:55 PM,51.3,27.0,39,30.39,1.8,NE,5.8,-,N/A,,Haze,50,2013-10-14 01:55:00
9:15 PM,48.2,27.9,45,30.39,1.5,NE,4.6,-,N/A,,Haze,50,2013-10-14 02:15:00
9:35 PM,47.8,27.9,46,30.39,1.5,NNE,4.6,-,N/A,,Haze,30,2013-10-14 02:35:00
9:55 PM,46.4,28.4,50,30.39,2.0,NNE,5.8,-,N/A,,Haze,30,2013-10-14 02:55:00
10:15 PM,45.1,28.9,53,30.38,1.8,NNE,6.9,-,N/A,,Haze,30,2013-10-14 03:15:00
10:35 PM,44.6,29.3,55,30.38,1.5,NNE,6.9,-,N/A,,Haze,30,2013-10-14 03:35:00
10:55 PM,43.5,29.8,59,30.38,1.0,NE,6.9,-,N/A,,Haze,40,2013-10-14 03:55:00
11:15 PM,44.4,29.8,57,30.38,1.2,NE,5.8,-,N/A,,Haze,50,2013-10-14 04:15:00
11:35 PM,43.9,29.8,58,30.38,1.0,NE,6.9,-,N/A,,Haze,40,2013-10-14 04:35:00
11:55 PM,43.2,29.8,59,30.38,0.8,NE,5.8,-,N/A,,Haze,50,2013-10-14 04:55:00